Year,Month,Day,Hour,Minute,Value (Times are PST for temperature in C)
2012,04,06,00,02,4.40
2012,04,06,00,05,4.40
2012,04,06,00,06,4.40
2012,04,06,00,07,4.40
2012,04,06,00,09,4.40
2012,04,06,00,10,4.40
2012,04,06,00,11,4.40
2012,04,06,00,14,4.40
2012,04,06,00,15,4.40
2012,04,06,00,16,4.40
2012,04,06,00,17,4.40
2012,04,06,00,18,4.40
2012,04,06,00,20,4.40
2012,04,06,00,21,4.40
2012,04,06,00,22,4.40
2012,04,06,00,24,4.40
2012,04,06,00,25,4.40
2012,04,06,00,26,4.40
2012,04,06,00,28,4.40
2012,04,06,00,29,4.40
2012,04,06,00,30,4.40
2012,04,06,00,31,4.40
2012,04,06,00,32,4.40
2012,04,06,00,33,4.40
2012,04,06,00,34,4.40
2012,04,06,00,35,4.40
2012,04,06,00,36,4.40
2012,04,06,00,37,4.40
2012,04,06,00,38,4.40
2012,04,06,00,39,4.40
2012,04,06,00,40,4.40
2012,04,06,00,42,4.40
2012,04,06,00,43,4.40
2012,04,06,00,44,4.40
2012,04,06,00,45,4.40
2012,04,06,00,47,4.40
2012,04,06,00,48,4.30
2012,04,06,00,49,4.30
2012,04,06,00,50,4.30
2012,04,06,00,52,4.30
2012,04,06,00,53,4.30
2012,04,06,00,54,4.30
2012,04,06,00,55,4.30
2012,04,06,00,57,4.30
2012,04,06,00,58,4.30
2012,04,06,00,59,4.30
2012,04,06,01,01,4.30
2012,04,06,01,02,4.30
2012,04,06,01,03,4.30
2012,04,06,01,04,4.30
2012,04,06,01,06,4.30
2012,04,06,01,07,4.30
2012,04,06,01,08,4.30
2012,04,06,01,09,4.30
2012,04,06,01,10,4.30
2012,04,06,01,11,4.30
2012,04,06,01,12,4.30
2012,04,06,01,13,4.30
2012,04,06,01,15,4.30
2012,04,06,01,16,4.30
2012,04,06,01,17,4.30
2012,04,06,01,18,4.30
2012,04,06,01,20,4.20
2012,04,06,01,21,4.20
2012,04,06,01,22,4.20
2012,04,06,01,23,4.30
2012,04,06,01,25,4.20
2012,04,06,01,26,4.20
2012,04,06,01,27,4.20
2012,04,06,01,29,4.30
2012,04,06,01,30,4.30
2012,04,06,01,31,4.30
2012,04,06,01,33,4.20
2012,04,06,01,34,4.20
2012,04,06,01,35,4.20
2012,04,06,01,36,4.20
2012,04,06,01,38,4.20
2012,04,06,01,39,4.10
2012,04,06,01,40,4.10
2012,04,06,01,41,4.10
2012,04,06,01,42,4.10
2012,04,06,01,43,4.10
2012,04,06,01,44,4.10
2012,04,06,01,45,4.10
2012,04,06,01,47,4.10
2012,04,06,01,48,4.10
2012,04,06,01,49,4.10
2012,04,06,01,51,4.10
2012,04,06,01,52,4.10
2012,04,06,01,53,4.10
2012,04,06,01,54,4.10
2012,04,06,01,56,4.00
2012,04,06,01,57,4.00
2012,04,06,01,58,4.00
2012,04,06,01,59,4.00
2012,04,06,02,00,4.00
2012,04,06,02,02,4.00
2012,04,06,02,03,4.00
2012,04,06,02,04,4.00
2012,04,06,02,06,4.00
2012,04,06,02,07,3.90
2012,04,06,02,08,3.90
2012,04,06,02,09,3.90
2012,04,06,02,11,3.90
2012,04,06,02,12,3.80
2012,04,06,02,13,3.80
2012,04,06,02,14,3.80
2012,04,06,02,16,3.80
2012,04,06,02,17,3.80
2012,04,06,02,18,3.80
2012,04,06,02,19,3.80
2012,04,06,02,20,3.80
2012,04,06,02,22,3.80
2012,04,06,02,23,3.80
2012,04,06,02,24,3.80
2012,04,06,02,25,3.80
2012,04,06,02,27,3.80
2012,04,06,02,28,3.80
2012,04,06,02,29,3.80
2012,04,06,02,30,3.80
2012,04,06,02,32,3.80
2012,04,06,02,33,3.80
2012,04,06,02,34,3.80
2012,04,06,02,35,3.80
2012,04,06,02,37,3.80
2012,04,06,02,38,3.80
2012,04,06,02,39,3.70
2012,04,06,02,40,3.70
2012,04,06,02,42,3.70
2012,04,06,02,43,3.70
2012,04,06,02,44,3.70
2012,04,06,02,46,3.70
2012,04,06,02,47,3.60
2012,04,06,02,48,3.60
2012,04,06,02,49,3.60
2012,04,06,02,51,3.60
2012,04,06,02,52,3.60
2012,04,06,02,53,3.60
2012,04,06,02,54,3.60
2012,04,06,02,56,3.60
2012,04,06,02,57,3.50
2012,04,06,02,58,3.50
2012,04,06,03,00,3.40
2012,04,06,03,01,3.40
2012,04,06,03,02,3.40
2012,04,06,03,03,3.40
2012,04,06,03,05,3.40
2012,04,06,03,06,3.40
2012,04,06,03,07,3.40
2012,04,06,03,08,3.40
2012,04,06,03,09,3.40
2012,04,06,03,10,3.40
2012,04,06,03,11,3.40
2012,04,06,03,12,3.30
2012,04,06,03,13,3.30
2012,04,06,03,14,3.30
2012,04,06,03,15,3.30
2012,04,06,03,16,3.30
2012,04,06,03,17,3.30
2012,04,06,03,18,3.30
2012,04,06,03,19,3.30
2012,04,06,03,20,3.30
2012,04,06,03,21,3.30
2012,04,06,03,22,3.20
2012,04,06,03,24,3.20
2012,04,06,03,25,3.20
2012,04,06,03,26,3.20
2012,04,06,03,27,3.20
2012,04,06,03,28,3.20
2012,04,06,03,29,3.20
2012,04,06,03,30,3.20
2012,04,06,03,31,3.20
2012,04,06,03,32,3.20
2012,04,06,03,33,3.20
2012,04,06,03,34,3.20
2012,04,06,03,35,3.20
2012,04,06,03,36,3.20
2012,04,06,03,37,3.20
2012,04,06,03,38,3.20
2012,04,06,03,39,3.20
2012,04,06,03,40,3.20
2012,04,06,03,41,3.10
2012,04,06,03,42,3.20
2012,04,06,03,43,3.20
2012,04,06,03,44,3.20
2012,04,06,03,45,3.20
2012,04,06,03,46,3.20
2012,04,06,03,47,3.20
2012,04,06,03,49,3.20
2012,04,06,03,50,3.20
2012,04,06,03,51,3.20
2012,04,06,03,52,3.20
2012,04,06,03,54,3.20
2012,04,06,03,55,3.20
2012,04,06,03,56,3.10
2012,04,06,03,57,3.10
2012,04,06,03,58,3.10
2012,04,06,03,59,3.10
2012,04,06,04,00,3.10
2012,04,06,04,01,3.10
2012,04,06,04,02,3.10
2012,04,06,04,03,3.10
2012,04,06,04,04,3.00
2012,04,06,04,05,3.00
2012,04,06,04,06,3.00
2012,04,06,04,07,3.00
2012,04,06,04,08,3.00
2012,04,06,04,09,3.00
2012,04,06,04,10,3.00
2012,04,06,04,11,2.90
2012,04,06,04,12,2.90
2012,04,06,04,14,2.90
2012,04,06,04,15,2.90
2012,04,06,04,16,2.90
2012,04,06,04,17,2.90
2012,04,06,04,18,2.80
2012,04,06,04,19,2.80
2012,04,06,04,20,2.80
2012,04,06,04,21,2.80
2012,04,06,04,22,2.80
2012,04,06,04,24,2.80
2012,04,06,04,25,2.80
2012,04,06,04,26,2.80
2012,04,06,04,27,2.80
2012,04,06,04,28,2.80
2012,04,06,04,30,2.80
2012,04,06,04,31,2.80
2012,04,06,04,32,2.80
2012,04,06,04,33,2.80
2012,04,06,04,35,2.80
2012,04,06,04,36,2.80
2012,04,06,04,37,2.80
2012,04,06,04,38,2.80
2012,04,06,04,39,2.80
2012,04,06,04,40,2.70
2012,04,06,04,41,2.70
2012,04,06,04,42,2.80
2012,04,06,04,43,2.80
2012,04,06,04,44,2.80
2012,04,06,04,45,2.80
2012,04,06,04,46,2.80
2012,04,06,04,47,2.80
2012,04,06,04,48,2.80
2012,04,06,04,49,2.80
2012,04,06,04,50,2.80
2012,04,06,04,51,2.80
2012,04,06,04,52,2.80
2012,04,06,04,54,2.80
2012,04,06,04,55,2.80
2012,04,06,04,56,2.80
2012,04,06,04,57,2.80
2012,04,06,04,58,2.80
2012,04,06,04,59,2.90
2012,04,06,05,00,2.90
2012,04,06,05,01,2.90
2012,04,06,05,03,2.90
2012,04,06,05,04,2.90
2012,04,06,05,05,2.90
2012,04,06,05,07,2.90
2012,04,06,05,08,2.90
2012,04,06,05,09,2.90
2012,04,06,05,10,2.90
2012,04,06,05,12,2.90
2012,04,06,05,13,2.90
2012,04,06,05,14,2.90
2012,04,06,05,15,2.90
2012,04,06,05,16,2.90
2012,04,06,05,17,2.90
2012,04,06,05,18,2.90
2012,04,06,05,19,2.90
2012,04,06,05,20,3.00
2012,04,06,05,22,3.00
2012,04,06,05,23,3.00
2012,04,06,05,24,3.10
2012,04,06,05,26,3.10
2012,04,06,05,27,3.10
2012,04,06,05,28,3.10
2012,04,06,05,29,3.10
2012,04,06,05,30,3.10
2012,04,06,05,31,3.10
2012,04,06,05,32,3.10
2012,04,06,05,33,3.10
2012,04,06,05,34,3.10
2012,04,06,05,36,3.10
2012,04,06,05,37,3.00
2012,04,06,05,38,3.00
2012,04,06,05,39,3.00
2012,04,06,05,40,3.00
2012,04,06,05,41,2.90
2012,04,06,05,42,2.90
2012,04,06,05,43,2.90
2012,04,06,05,44,3.00
2012,04,06,05,46,2.90
2012,04,06,05,47,2.90
2012,04,06,05,48,2.90
2012,04,06,05,49,2.90
2012,04,06,05,50,2.90
2012,04,06,05,51,2.90
2012,04,06,05,52,3.00
2012,04,06,05,53,3.00
2012,04,06,05,55,3.00
2012,04,06,05,56,2.90
2012,04,06,05,57,2.90
2012,04,06,05,58,2.90
2012,04,06,05,59,2.90
2012,04,06,06,00,2.90
2012,04,06,06,02,2.90
2012,04,06,06,03,2.90
2012,04,06,06,04,2.90
2012,04,06,06,05,2.90
2012,04,06,06,07,2.90
2012,04,06,06,08,2.90
2012,04,06,06,09,2.90
2012,04,06,06,10,2.90
2012,04,06,06,11,2.90
2012,04,06,06,12,2.90
2012,04,06,06,13,2.80
2012,04,06,06,15,2.80
2012,04,06,06,16,2.80
2012,04,06,06,17,2.80
2012,04,06,06,18,2.80
2012,04,06,06,19,2.80
2012,04,06,06,20,2.80
2012,04,06,06,21,2.70
2012,04,06,06,22,2.70
2012,04,06,06,23,2.70
2012,04,06,06,24,2.70
2012,04,06,06,25,2.70
2012,04,06,06,26,2.60
2012,04,06,06,27,2.60
2012,04,06,06,28,2.50
2012,04,06,06,30,2.50
2012,04,06,06,31,2.40
2012,04,06,06,32,2.40
2012,04,06,06,33,2.40
2012,04,06,06,34,2.40
2012,04,06,06,36,2.40
2012,04,06,06,37,2.40
2012,04,06,06,38,2.40
2012,04,06,06,39,2.40
2012,04,06,06,40,2.40
2012,04,06,06,41,2.40
2012,04,06,06,42,2.40
2012,04,06,06,43,2.40
2012,04,06,06,45,2.40
2012,04,06,06,46,2.40
2012,04,06,06,47,2.30
2012,04,06,06,48,2.30
2012,04,06,06,49,2.30
2012,04,06,06,50,2.30
2012,04,06,06,51,2.40
2012,04,06,06,52,2.40
2012,04,06,06,53,2.40
2012,04,06,06,54,2.40
2012,04,06,06,55,2.40
2012,04,06,06,56,2.40
2012,04,06,06,57,2.40
2012,04,06,06,58,2.40
2012,04,06,06,59,2.40
2012,04,06,07,00,2.50
2012,04,06,07,01,2.50
2012,04,06,07,02,2.40
2012,04,06,07,04,2.40
2012,04,06,07,05,2.40
2012,04,06,07,06,2.40
2012,04,06,07,07,2.40
2012,04,06,07,08,2.40
2012,04,06,07,09,2.40
2012,04,06,07,10,2.30
2012,04,06,07,11,2.30
2012,04,06,07,12,2.30
2012,04,06,07,14,2.20
2012,04,06,07,15,2.20
2012,04,06,07,16,2.20
2012,04,06,07,17,2.10
2012,04,06,07,18,2.10
2012,04,06,07,19,2.00
2012,04,06,07,20,1.90
2012,04,06,07,21,1.90
2012,04,06,07,22,1.90
2012,04,06,07,23,1.90
2012,04,06,07,24,1.90
2012,04,06,07,25,1.90
2012,04,06,07,26,1.90
2012,04,06,07,27,1.90
2012,04,06,07,29,1.90
2012,04,06,07,30,2.00
2012,04,06,07,31,2.00
2012,04,06,07,32,2.10
2012,04,06,07,33,2.10
2012,04,06,07,34,2.10
2012,04,06,07,35,2.10
2012,04,06,07,36,2.10
2012,04,06,07,37,2.10
2012,04,06,07,38,2.10
2012,04,06,07,39,2.10
2012,04,06,07,40,1.90
2012,04,06,07,42,1.90
2012,04,06,07,43,1.80
2012,04,06,07,44,1.80
2012,04,06,07,45,1.80
2012,04,06,07,47,1.80
2012,04,06,07,48,1.90
2012,04,06,07,49,2.00
2012,04,06,07,50,2.10
2012,04,06,07,51,2.10
2012,04,06,07,52,2.20
2012,04,06,07,53,2.20
2012,04,06,07,54,2.30
2012,04,06,07,55,2.30
2012,04,06,07,57,2.40
2012,04,06,07,58,2.50
2012,04,06,07,59,2.60
2012,04,06,08,00,2.70
2012,04,06,08,02,2.70
2012,04,06,08,03,2.80
2012,04,06,08,04,2.80
2012,04,06,08,05,2.80
2012,04,06,08,07,2.80
2012,04,06,08,08,2.90
2012,04,06,08,09,2.90
2012,04,06,08,10,2.90
2012,04,06,08,11,2.90
2012,04,06,08,12,2.90
2012,04,06,08,13,3.00
2012,04,06,08,14,3.00
2012,04,06,08,15,3.00
2012,04,06,08,17,3.10
2012,04,06,08,18,3.10
2012,04,06,08,19,3.10
2012,04,06,08,20,3.10
2012,04,06,08,21,3.20
2012,04,06,08,22,3.20
2012,04,06,08,23,3.30
2012,04,06,08,24,3.30
2012,04,06,08,25,3.40
2012,04,06,08,26,3.40
2012,04,06,08,27,3.60
2012,04,06,08,28,3.60
2012,04,06,08,29,3.70
2012,04,06,08,31,3.80
2012,04,06,08,32,3.90
2012,04,06,08,33,4.10
2012,04,06,08,35,4.20
2012,04,06,08,36,4.30
2012,04,06,08,37,4.30
2012,04,06,08,38,4.40
2012,04,06,08,40,4.50
2012,04,06,08,41,4.60
2012,04,06,08,42,4.70
2012,04,06,08,43,4.70
2012,04,06,08,45,4.70
2012,04,06,08,46,4.80
2012,04,06,08,47,4.90
2012,04,06,08,48,5.10
2012,04,06,08,50,5.20
2012,04,06,08,51,5.20
2012,04,06,08,52,5.40
2012,04,06,08,53,5.50
2012,04,06,08,55,5.60
2012,04,06,08,56,5.80
2012,04,06,08,57,5.80
2012,04,06,08,58,5.80
2012,04,06,09,00,5.90
2012,04,06,09,01,5.90
2012,04,06,09,02,5.90
2012,04,06,09,03,6.00
2012,04,06,09,04,6.10
2012,04,06,09,06,6.10
2012,04,06,09,07,6.20
2012,04,06,09,08,6.40
2012,04,06,09,09,6.50
2012,04,06,09,10,6.60
2012,04,06,09,12,6.70
2012,04,06,09,13,6.80
2012,04,06,09,14,6.90
2012,04,06,09,15,6.90
2012,04,06,09,17,7.10
2012,04,06,09,18,7.10
2012,04,06,09,19,7.20
2012,04,06,09,20,7.20
2012,04,06,09,22,7.30
2012,04,06,09,23,7.30
2012,04,06,09,24,7.40
2012,04,06,09,26,7.40
2012,04,06,09,27,7.50
2012,04,06,09,28,7.40
2012,04,06,09,29,7.40
2012,04,06,09,30,7.40
2012,04,06,09,31,7.40
2012,04,06,09,32,7.40
2012,04,06,09,34,7.50
2012,04,06,09,35,7.60
2012,04,06,09,36,7.60
2012,04,06,09,37,7.60
2012,04,06,09,39,7.60
2012,04,06,09,40,7.70
2012,04,06,09,41,7.70
2012,04,06,09,43,7.70
2012,04,06,09,44,7.70
2012,04,06,09,45,7.70
2012,04,06,09,46,7.70
2012,04,06,09,47,7.70
2012,04,06,09,49,7.70
2012,04,06,09,50,7.70
2012,04,06,09,51,7.80
2012,04,06,09,52,7.80
2012,04,06,09,53,7.80
2012,04,06,09,54,7.80
2012,04,06,09,55,7.70
2012,04,06,09,56,7.70
2012,04,06,09,57,7.80
2012,04,06,09,58,7.80
2012,04,06,09,59,7.90
2012,04,06,10,00,7.90
2012,04,06,10,01,8.10
2012,04,06,10,02,8.10
2012,04,06,10,03,8.20
2012,04,06,10,04,8.20
2012,04,06,10,05,8.30
2012,04,06,10,06,8.30
2012,04,06,10,07,8.30
2012,04,06,10,08,8.40
2012,04,06,10,09,8.40
2012,04,06,10,10,8.60
2012,04,06,10,11,8.60
2012,04,06,10,12,8.60
2012,04,06,10,13,8.60
2012,04,06,10,14,8.60
2012,04,06,10,15,8.60
2012,04,06,10,17,8.60
2012,04,06,10,18,8.70
2012,04,06,10,19,8.70
2012,04,06,10,20,8.70
2012,04,06,10,21,8.60
2012,04,06,10,22,8.60
2012,04,06,10,23,8.50
2012,04,06,10,24,8.50
2012,04,06,10,25,8.50
2012,04,06,10,27,8.40
2012,04,06,10,28,8.30
2012,04,06,10,29,8.20
2012,04,06,10,30,8.20
2012,04,06,10,31,8.20
2012,04,06,10,32,8.20
2012,04,06,10,33,8.20
2012,04,06,10,34,8.20
2012,04,06,10,36,8.20
2012,04,06,10,37,8.30
2012,04,06,10,38,8.30
2012,04,06,10,39,8.30
2012,04,06,10,41,8.20
2012,04,06,10,42,8.20
2012,04,06,10,43,8.20
2012,04,06,10,44,8.20
2012,04,06,10,45,8.20
2012,04,06,10,46,8.20
2012,04,06,10,47,8.20
2012,04,06,10,48,8.20
2012,04,06,10,49,8.10
2012,04,06,10,50,8.00
2012,04,06,10,51,7.90
2012,04,06,10,52,7.80
2012,04,06,10,53,7.80
2012,04,06,10,54,7.80
2012,04,06,10,55,7.80
2012,04,06,10,56,7.80
2012,04,06,10,58,7.80
2012,04,06,10,59,7.90
2012,04,06,11,00,7.90
2012,04,06,11,01,8.10
2012,04,06,11,02,8.20
2012,04,06,11,03,8.30
2012,04,06,11,04,8.40
2012,04,06,11,05,8.60
2012,04,06,11,06,8.80
2012,04,06,11,08,8.80
2012,04,06,11,09,8.90
2012,04,06,11,10,8.90
2012,04,06,11,11,8.90
2012,04,06,11,13,9.00
2012,04,06,11,14,9.10
2012,04,06,11,15,9.20
2012,04,06,11,16,9.30
2012,04,06,11,18,9.40
2012,04,06,11,19,9.50
2012,04,06,11,20,9.50
2012,04,06,11,21,9.40
2012,04,06,11,22,9.30
2012,04,06,11,23,9.30
2012,04,06,11,24,9.20
2012,04,06,11,25,9.20
2012,04,06,11,26,9.20
2012,04,06,11,27,9.20
2012,04,06,11,28,9.20
2012,04,06,11,29,9.20
2012,04,06,11,30,9.20
2012,04,06,11,31,9.10
2012,04,06,11,32,9.20
2012,04,06,11,34,9.20
2012,04,06,11,35,9.30
2012,04,06,11,36,9.30
2012,04,06,11,37,9.30
2012,04,06,11,39,9.20
2012,04,06,11,40,9.10
2012,04,06,11,41,9.00
2012,04,06,11,42,8.90
2012,04,06,11,44,8.90
2012,04,06,11,45,8.90
2012,04,06,11,47,9.00
2012,04,06,11,48,9.10
2012,04,06,11,49,9.10
2012,04,06,11,50,9.10
2012,04,06,11,51,9.20
2012,04,06,11,53,9.20
2012,04,06,11,54,9.20
2012,04,06,11,55,9.10
2012,04,06,11,57,9.10
2012,04,06,11,58,9.10
2012,04,06,11,59,9.00
2012,04,06,12,00,9.00
2012,04,06,12,01,9.10
2012,04,06,12,03,9.10
2012,04,06,12,04,9.20
2012,04,06,12,05,9.20
2012,04,06,12,06,9.30
2012,04,06,12,08,9.30
2012,04,06,12,09,9.40
2012,04,06,12,10,9.40
2012,04,06,12,12,9.40
2012,04,06,12,13,9.40
2012,04,06,12,14,9.50
2012,04,06,12,16,9.50
2012,04,06,12,17,9.60
2012,04,06,12,18,9.60
2012,04,06,12,19,9.60
2012,04,06,12,20,9.60
2012,04,06,12,22,9.60
2012,04,06,12,23,9.60
2012,04,06,12,24,9.50
2012,04,06,12,25,9.60
2012,04,06,12,26,9.60
2012,04,06,12,27,9.60
2012,04,06,12,28,9.70
2012,04,06,12,29,9.70
2012,04,06,12,30,9.70
2012,04,06,12,31,9.80
2012,04,06,12,32,9.80
2012,04,06,12,33,9.90
2012,04,06,12,34,9.90
2012,04,06,12,36,9.90
2012,04,06,12,37,9.80
2012,04,06,12,38,9.80
2012,04,06,12,40,9.80
2012,04,06,12,41,9.80
2012,04,06,12,42,9.70
2012,04,06,12,43,9.60
2012,04,06,12,44,9.60
2012,04,06,12,45,9.60
2012,04,06,12,46,9.70
2012,04,06,12,47,9.70
2012,04,06,12,48,9.70
2012,04,06,12,49,9.70
2012,04,06,12,50,9.70
2012,04,06,12,52,9.70
2012,04,06,12,53,9.80
2012,04,06,12,54,9.80
2012,04,06,12,55,9.80
2012,04,06,12,56,9.70
2012,04,06,12,58,9.60
2012,04,06,12,59,9.70
2012,04,06,13,00,9.70
2012,04,06,13,01,9.70
2012,04,06,13,03,9.80
2012,04,06,13,04,9.80
2012,04,06,13,05,9.90
2012,04,06,13,06,9.90
2012,04,06,13,07,10.00
2012,04,06,13,08,9.90
2012,04,06,13,09,9.90
2012,04,06,13,10,9.90
2012,04,06,13,11,9.90
2012,04,06,13,12,10.10
2012,04,06,13,13,10.20
2012,04,06,13,14,10.30
2012,04,06,13,15,10.30
2012,04,06,13,16,10.40
2012,04,06,13,17,10.40
2012,04,06,13,18,10.40
2012,04,06,13,19,10.50
2012,04,06,13,20,10.50
2012,04,06,13,21,10.50
2012,04,06,13,22,10.40
2012,04,06,13,23,10.40
2012,04,06,13,24,10.30
2012,04,06,13,26,10.20
2012,04,06,13,27,10.10
2012,04,06,13,28,9.90
2012,04,06,13,29,9.80
2012,04,06,13,31,9.80
2012,04,06,13,32,9.90
2012,04,06,13,33,9.90
2012,04,06,13,34,9.90
2012,04,06,13,35,9.90
2012,04,06,13,37,9.80
2012,04,06,13,38,9.80
2012,04,06,13,39,9.80
2012,04,06,13,40,9.80
2012,04,06,13,41,9.80
2012,04,06,13,42,9.90
2012,04,06,13,43,9.90
2012,04,06,13,44,10.00
2012,04,06,13,45,9.90
2012,04,06,13,47,9.90
2012,04,06,13,48,9.90
2012,04,06,13,49,10.10
2012,04,06,13,50,10.20
2012,04,06,13,51,10.20
2012,04,06,13,53,10.30
2012,04,06,13,54,10.30
2012,04,06,13,55,10.20
2012,04,06,13,56,10.10
2012,04,06,13,57,10.10
2012,04,06,13,58,10.10
2012,04,06,13,59,10.20
2012,04,06,14,00,10.30
2012,04,06,14,01,10.30
2012,04,06,14,02,10.40
2012,04,06,14,03,10.40
2012,04,06,14,04,10.40
2012,04,06,14,05,10.50
2012,04,06,14,06,10.60
2012,04,06,14,07,10.60
2012,04,06,14,08,10.60
2012,04,06,14,09,10.50
2012,04,06,14,10,10.40
2012,04,06,14,11,10.30
2012,04,06,14,12,10.30
2012,04,06,14,13,10.20
2012,04,06,14,14,10.00
2012,04,06,14,15,9.90
2012,04,06,14,17,9.80
2012,04,06,14,18,9.80
2012,04,06,14,19,9.70
2012,04,06,14,20,9.70
2012,04,06,14,22,9.80
2012,04,06,14,23,9.80
2012,04,06,14,24,9.90
2012,04,06,14,25,9.90
2012,04,06,14,27,9.90
2012,04,06,14,28,10.00
2012,04,06,14,29,10.10
2012,04,06,14,30,10.10
2012,04,06,14,32,10.10
2012,04,06,14,33,10.10
2012,04,06,14,34,10.10
2012,04,06,14,35,10.10
2012,04,06,14,37,10.10
2012,04,06,14,38,10.10
2012,04,06,14,39,10.00
2012,04,06,14,41,10.00
2012,04,06,14,42,10.00
2012,04,06,14,43,10.00
2012,04,06,14,44,10.00
2012,04,06,14,45,10.00
2012,04,06,14,47,10.10
2012,04,06,14,48,10.20
2012,04,06,14,49,10.10
2012,04,06,14,50,10.10
2012,04,06,14,52,10.10
2012,04,06,14,53,10.10
2012,04,06,14,54,10.10
2012,04,06,14,56,10.10
2012,04,06,14,57,10.20
2012,04,06,14,58,10.20
2012,04,06,14,59,10.20
2012,04,06,15,01,10.30
2012,04,06,15,02,10.30
2012,04,06,15,03,10.30
2012,04,06,15,04,10.30
2012,04,06,15,06,10.40
2012,04,06,15,07,10.40
2012,04,06,15,08,10.60
2012,04,06,15,09,10.60
2012,04,06,15,11,10.70
2012,04,06,15,12,10.70
2012,04,06,15,13,10.70
2012,04,06,15,14,10.70
2012,04,06,15,16,10.70
2012,04,06,15,17,10.70
2012,04,06,15,18,10.70
2012,04,06,15,20,10.70
2012,04,06,15,21,10.70
2012,04,06,15,22,10.70
2012,04,06,15,23,10.70
2012,04,06,15,24,10.60
2012,04,06,15,26,10.60
2012,04,06,15,27,10.50
2012,04,06,15,28,10.50
2012,04,06,15,29,10.50
2012,04,06,15,30,10.60
2012,04,06,15,32,10.60
2012,04,06,15,33,10.70
2012,04,06,15,34,10.80
2012,04,06,15,35,10.80
2012,04,06,15,36,10.80
2012,04,06,15,37,10.90
2012,04,06,15,38,10.90
2012,04,06,15,39,10.90
2012,04,06,15,40,11.00
2012,04,06,15,42,11.10
2012,04,06,15,43,11.10
2012,04,06,15,44,11.20
2012,04,06,15,45,11.10
2012,04,06,15,46,11.20
2012,04,06,15,47,11.20
2012,04,06,15,48,11.20
2012,04,06,15,49,11.20
2012,04,06,15,50,11.20
2012,04,06,15,52,11.20
2012,04,06,15,53,11.30
2012,04,06,15,54,11.30
2012,04,06,15,56,11.20
2012,04,06,15,57,11.00
2012,04,06,15,58,10.80
2012,04,06,15,59,10.70
2012,04,06,16,00,10.70
2012,04,06,16,01,10.60
2012,04,06,16,02,10.50
2012,04,06,16,03,10.40
2012,04,06,16,05,10.30
2012,04,06,16,06,10.30
2012,04,06,16,07,10.30
2012,04,06,16,08,10.30
2012,04,06,16,09,10.40
2012,04,06,16,10,10.60
2012,04,06,16,12,10.70
2012,04,06,16,13,10.80
2012,04,06,16,14,10.90
2012,04,06,16,15,11.10
2012,04,06,16,16,11.10
2012,04,06,16,17,11.10
2012,04,06,16,18,11.00
2012,04,06,16,19,11.00
2012,04,06,16,20,11.00
2012,04,06,16,21,11.10
2012,04,06,16,22,11.10
2012,04,06,16,23,11.20
2012,04,06,16,24,11.20
2012,04,06,16,25,11.00
2012,04,06,16,26,10.80
2012,04,06,16,28,10.80
2012,04,06,16,29,10.60
2012,04,06,16,30,10.50
2012,04,06,16,31,10.40
2012,04,06,16,32,10.40
2012,04,06,16,34,10.40
2012,04,06,16,35,10.40
2012,04,06,16,36,10.30
2012,04,06,16,38,10.30
2012,04,06,16,39,10.30
2012,04,06,16,40,10.30
2012,04,06,16,42,10.30
2012,04,06,16,43,10.30
2012,04,06,16,44,10.30
2012,04,06,16,46,10.30
2012,04,06,16,47,10.40
2012,04,06,16,48,10.40
2012,04,06,16,49,10.30
2012,04,06,16,51,10.20
2012,04,06,16,52,10.20
2012,04,06,16,53,10.20
2012,04,06,16,54,10.20
2012,04,06,16,55,10.20
2012,04,06,16,57,10.20
2012,04,06,16,58,10.20
2012,04,06,16,59,10.10
2012,04,06,17,00,10.10
2012,04,06,17,01,10.10
2012,04,06,17,03,10.10
2012,04,06,17,04,10.10
2012,04,06,17,05,9.90
2012,04,06,17,07,9.90
2012,04,06,17,08,9.90
2012,04,06,17,09,10.10
2012,04,06,17,10,10.10
2012,04,06,17,11,10.10
2012,04,06,17,13,10.10
2012,04,06,17,14,10.10
2012,04,06,17,15,10.10
2012,04,06,17,17,10.10
2012,04,06,17,18,10.10
2012,04,06,17,19,10.10
2012,04,06,17,20,10.10
2012,04,06,17,22,10.10
2012,04,06,17,23,10.10
2012,04,06,17,24,10.20
2012,04,06,17,25,10.20
2012,04,06,17,26,10.30
2012,04,06,17,27,10.30
2012,04,06,17,28,10.30
2012,04,06,17,29,10.40
2012,04,06,17,30,10.30
2012,04,06,17,31,10.30
2012,04,06,17,32,10.20
2012,04,06,17,33,10.20
2012,04,06,17,34,10.20
2012,04,06,17,35,10.20
2012,04,06,17,36,10.30
2012,04,06,17,37,10.40
2012,04,06,17,38,10.50
2012,04,06,17,39,10.40
2012,04,06,17,41,10.40
2012,04,06,17,42,10.30
2012,04,06,17,43,10.20
2012,04,06,17,44,10.20
2012,04,06,17,46,10.10
2012,04,06,17,47,10.00
2012,04,06,17,48,10.00
2012,04,06,17,49,9.90
2012,04,06,17,50,9.90
2012,04,06,17,51,9.90
2012,04,06,17,52,9.90
2012,04,06,17,53,9.90
2012,04,06,17,55,10.00
2012,04,06,17,56,9.90
2012,04,06,17,57,9.80
2012,04,06,17,59,9.60
2012,04,06,18,00,9.40
2012,04,06,18,01,9.30
2012,04,06,18,02,9.20
2012,04,06,18,03,9.10
2012,04,06,18,04,9.10
2012,04,06,18,05,9.00
2012,04,06,18,06,9.00
2012,04,06,18,07,9.00
2012,04,06,18,08,9.10
2012,04,06,18,09,9.10
2012,04,06,18,10,9.10
2012,04,06,18,11,9.10
2012,04,06,18,12,9.10
2012,04,06,18,13,9.20
2012,04,06,18,14,9.20
2012,04,06,18,15,9.30
2012,04,06,18,16,9.30
2012,04,06,18,17,9.30
2012,04,06,18,18,9.30
2012,04,06,18,19,9.30
2012,04,06,18,20,9.30
2012,04,06,18,21,9.40
2012,04,06,18,22,9.40
2012,04,06,18,24,9.40
2012,04,06,18,25,9.40
2012,04,06,18,26,9.50
2012,04,06,18,27,9.50
2012,04,06,18,28,9.50
2012,04,06,18,30,9.40
2012,04,06,18,31,9.30
2012,04,06,18,32,9.40
2012,04,06,18,33,9.30
2012,04,06,18,34,9.40
2012,04,06,18,35,9.30
2012,04,06,18,36,9.30
2012,04,06,18,37,9.30
2012,04,06,18,38,9.30
2012,04,06,18,39,9.30
2012,04,06,18,40,9.30
2012,04,06,18,41,9.30
2012,04,06,18,42,9.40
2012,04,06,18,43,9.40
2012,04,06,18,44,9.40
2012,04,06,18,45,9.40
2012,04,06,18,46,9.40
2012,04,06,18,47,9.40
2012,04,06,18,48,9.30
2012,04,06,18,49,9.30
2012,04,06,18,50,9.30
2012,04,06,18,51,9.30
2012,04,06,18,52,9.30
2012,04,06,18,53,9.20
2012,04,06,18,54,9.20
2012,04,06,18,55,9.20
2012,04,06,18,56,9.20
2012,04,06,18,58,9.20
2012,04,06,18,59,9.20
2012,04,06,19,00,9.20
2012,04,06,19,01,9.10
2012,04,06,19,02,9.10
2012,04,06,19,04,9.10
2012,04,06,19,05,9.00
2012,04,06,19,06,9.00
2012,04,06,19,07,8.90
2012,04,06,19,08,8.90
2012,04,06,19,10,8.80
2012,04,06,19,11,8.80
2012,04,06,19,12,8.70
2012,04,06,19,13,8.70
2012,04,06,19,15,8.70
2012,04,06,19,16,8.60
2012,04,06,19,17,8.60
2012,04,06,19,18,8.60
2012,04,06,19,19,8.60
2012,04,06,19,20,8.50
2012,04,06,19,21,8.50
2012,04,06,19,22,8.40
2012,04,06,19,23,8.40
2012,04,06,19,25,8.40
2012,04,06,19,26,8.30
2012,04,06,19,27,8.30
2012,04,06,19,28,8.20
2012,04,06,19,30,8.20
2012,04,06,19,31,8.10
2012,04,06,19,32,8.10
2012,04,06,19,33,8.10
2012,04,06,19,35,8.00
2012,04,06,19,36,7.90
2012,04,06,19,37,7.90
2012,04,06,19,38,7.90
2012,04,06,19,39,7.80
2012,04,06,19,40,7.80
2012,04,06,19,41,7.80
2012,04,06,19,42,7.70
2012,04,06,19,43,7.70
2012,04,06,19,44,7.70
2012,04,06,19,45,7.70
2012,04,06,19,47,7.60
2012,04,06,19,48,7.60
2012,04,06,19,49,7.60
2012,04,06,19,50,7.50
2012,04,06,19,51,7.40
2012,04,06,19,53,7.40
2012,04,06,19,54,7.40
2012,04,06,19,55,7.30
2012,04,06,19,57,7.30
2012,04,06,19,58,7.30
2012,04,06,19,59,7.30
2012,04,06,20,00,7.20
2012,04,06,20,02,7.20
2012,04,06,20,03,7.20
2012,04,06,20,04,7.20
2012,04,06,20,05,7.10
2012,04,06,20,07,7.10
2012,04,06,20,08,7.10
2012,04,06,20,09,7.10
2012,04,06,20,10,7.00
2012,04,06,20,12,7.00
2012,04,06,20,13,6.90
2012,04,06,20,14,6.90
2012,04,06,20,15,6.90
2012,04,06,20,17,6.80
2012,04,06,20,18,6.80
2012,04,06,20,19,6.80
2012,04,06,20,20,6.80
2012,04,06,20,21,6.80
2012,04,06,20,22,6.80
2012,04,06,20,23,6.70
2012,04,06,20,24,6.70
2012,04,06,20,25,6.70
2012,04,06,20,26,6.70
2012,04,06,20,27,6.70
2012,04,06,20,28,6.60
2012,04,06,20,29,6.60
2012,04,06,20,31,6.60
2012,04,06,20,32,6.60
2012,04,06,20,33,6.60
2012,04,06,20,34,6.50
2012,04,06,20,36,6.50
2012,04,06,20,37,6.40
2012,04,06,20,38,6.40
2012,04,06,20,39,6.40
2012,04,06,20,41,6.40
2012,04,06,20,42,6.40
2012,04,06,20,43,6.40
2012,04,06,20,44,6.40
2012,04,06,20,45,6.30
2012,04,06,20,46,6.30
2012,04,06,20,48,6.30
2012,04,06,20,49,6.30